Time,TemperatureF,DewpointF,PressureIn,WindDirection,WindDirectionDegrees,WindSpeedMPH,WindSpeedGustMPH,Humidity,HourlyPrecipIn,Conditions,Clouds,dailyrainin,SoftwareType,DateUTC
2013-05-10 00:00:00,58.5,53.4,30.07,SW,217,0.0,0.0,83,0.00,,---,0.00,VWS V14.01,2013-05-10 04:00:00,
2013-05-10 00:01:00,58.3,53.2,30.07,SW,217,0.0,1.0,83,0.00,,---,0.00,VWS V14.01,2013-05-10 04:01:00,
2013-05-10 00:05:00,58.2,53.4,30.07,SW,217,0.0,1.0,84,0.00,,---,0.00,VWS V14.01,2013-05-10 04:05:00,
2013-05-10 00:06:00,57.8,53.0,30.07,SW,217,0.0,1.0,84,0.00,,---,0.00,VWS V14.01,2013-05-10 04:06:00,
2013-05-10 00:10:00,57.7,52.9,30.07,SW,217,2.0,3.0,84,0.00,,---,0.00,VWS V14.01,2013-05-10 04:10:00,
2013-05-10 00:11:00,57.3,53.2,30.08,SW,218,0.0,4.0,86,0.00,,---,0.00,VWS V14.01,2013-05-10 04:11:00,
2013-05-10 00:15:00,57.2,53.1,30.08,SW,218,0.0,4.0,86,0.00,,---,0.00,VWS V14.01,2013-05-10 04:15:00,
2013-05-10 00:16:00,56.9,52.8,30.07,SW,218,0.0,1.0,86,0.00,,---,0.00,VWS V14.01,2013-05-10 04:16:00,
2013-05-10 00:20:00,56.9,53.1,30.07,SW,218,0.0,1.0,87,0.00,,---,0.00,VWS V14.01,2013-05-10 04:20:00,
2013-05-10 00:21:00,56.6,52.8,30.08,SW,218,0.0,2.0,87,0.00,,---,0.00,VWS V14.01,2013-05-10 04:21:00,
2013-05-10 00:25:00,56.5,52.7,30.08,SW,218,5.0,5.0,87,0.00,,---,0.00,VWS V14.01,2013-05-10 04:25:00,
2013-05-10 00:26:00,56.6,53.1,30.08,SSW,209,1.0,5.0,88,0.00,,---,0.00,VWS V14.01,2013-05-10 04:26:00,
2013-05-10 00:30:00,56.6,53.1,30.08,SSW,209,0.0,5.0,88,0.00,,---,0.00,VWS V14.01,2013-05-10 04:30:00,
2013-05-10 00:31:00,56.7,52.9,30.08,SSW,209,0.0,2.0,87,0.00,,---,0.00,VWS V14.01,2013-05-10 04:31:00,
2013-05-10 00:35:00,56.7,52.9,30.08,SSW,209,0.0,2.0,87,0.00,,---,0.00,VWS V14.01,2013-05-10 04:35:00,
2013-05-10 00:36:00,56.2,52.4,30.08,SSW,209,0.0,1.0,87,0.00,,---,0.00,VWS V14.01,2013-05-10 04:36:00,
2013-05-10 00:40:00,56.1,52.3,30.08,SSW,209,2.0,2.0,87,0.00,,---,0.00,VWS V14.01,2013-05-10 04:40:00,
2013-05-10 00:41:00,55.9,52.4,30.08,SSW,209,0.0,2.0,88,0.00,,---,0.00,VWS V14.01,2013-05-10 04:41:00,
2013-05-10 00:45:00,55.9,52.4,30.08,SSW,209,0.0,2.0,88,0.00,,---,0.00,VWS V14.01,2013-05-10 04:45:00,
2013-05-10 00:46:00,55.9,52.7,30.08,SSW,209,0.0,0.0,89,0.00,,---,0.00,VWS V14.01,2013-05-10 04:46:00,
2013-05-10 00:50:00,55.8,52.6,30.08,SSW,209,0.0,0.0,89,0.00,,---,0.00,VWS V14.01,2013-05-10 04:50:00,
2013-05-10 00:51:00,55.8,52.6,30.08,SSW,209,0.0,1.0,89,0.00,,---,0.00,VWS V14.01,2013-05-10 04:51:00,
2013-05-10 00:55:00,55.9,52.7,30.08,SSW,209,0.0,1.0,89,0.00,,---,0.00,VWS V14.01,2013-05-10 04:55:00,
2013-05-10 00:56:00,55.5,52.0,30.08,SSW,209,3.0,3.0,88,0.00,,---,0.00,VWS V14.01,2013-05-10 04:56:00,
2013-05-10 01:00:00,55.4,52.2,30.08,SSW,209,2.0,3.0,89,0.00,,---,0.00,VWS V14.01,2013-05-10 05:00:00,
2013-05-10 01:01:00,55.2,52.0,30.08,SSW,210,2.0,3.0,89,0.00,,---,0.00,VWS V14.01,2013-05-10 05:01:00,
2013-05-10 01:05:00,55.2,52.0,30.08,SSW,210,0.0,3.0,89,0.00,,---,0.00,VWS V14.01,2013-05-10 05:05:00,
2013-05-10 01:06:00,55.1,51.9,30.08,SSW,208,0.0,3.0,89,0.00,,---,0.00,VWS V14.01,2013-05-10 05:06:00,
2013-05-10 01:10:00,55.0,51.8,30.08,SSW,208,0.0,4.0,89,0.00,,---,0.00,VWS V14.01,2013-05-10 05:10:00,
2013-05-10 01:11:00,55.1,52.2,30.09,SSW,208,0.0,0.0,90,0.00,,---,0.00,VWS V14.01,2013-05-10 05:11:00,
2013-05-10 01:15:00,55.0,51.8,30.09,SSW,208,1.0,2.0,89,0.00,,---,0.00,VWS V14.01,2013-05-10 05:15:00,
2013-05-10 01:16:00,55.3,52.4,30.08,SSW,208,0.0,3.0,90,0.00,,---,0.00,VWS V14.01,2013-05-10 05:16:00,
2013-05-10 01:20:00,55.3,52.4,30.08,SSW,208,0.0,3.0,90,0.00,,---,0.00,VWS V14.01,2013-05-10 05:20:00,
2013-05-10 01:21:00,55.6,52.7,30.08,SSW,208,0.0,2.0,90,0.00,,---,0.00,VWS V14.01,2013-05-10 05:21:00,
2013-05-10 01:25:00,55.5,52.3,30.08,SSW,208,0.0,2.0,89,0.00,,---,0.00,VWS V14.01,2013-05-10 05:25:00,
2013-05-10 01:26:00,55.5,52.3,30.08,SSW,208,0.0,1.0,89,0.00,,---,0.00,VWS V14.01,2013-05-10 05:26:00,
2013-05-10 01:30:00,55.5,52.3,30.08,SSW,208,0.0,1.0,89,0.00,,---,0.00,VWS V14.01,2013-05-10 05:30:00,
2013-05-10 01:31:00,54.9,51.4,30.08,SSW,208,0.0,1.0,88,0.00,,---,0.00,VWS V14.01,2013-05-10 05:31:00,
2013-05-10 01:35:00,54.8,51.3,30.08,SSW,208,0.0,1.0,88,0.00,,---,0.00,VWS V14.01,2013-05-10 05:35:00,
2013-05-10 01:36:00,54.5,51.3,30.08,SSW,208,0.0,1.0,89,0.00,,---,0.00,VWS V14.01,2013-05-10 05:36:00,
2013-05-10 01:40:00,54.4,51.2,30.08,SSW,208,0.0,1.0,89,0.00,,---,0.00,VWS V14.01,2013-05-10 05:40:00,
2013-05-10 01:41:00,54.1,51.2,30.08,SSW,208,0.0,3.0,90,0.00,,---,0.00,VWS V14.01,2013-05-10 05:41:00,
2013-05-10 01:45:00,54.0,51.1,30.08,SSW,208,1.0,3.0,90,0.00,,---,0.00,VWS V14.01,2013-05-10 05:45:00,
2013-05-10 01:46:00,54.0,51.4,30.08,SSW,209,0.0,3.0,91,0.00,,---,0.00,VWS V14.01,2013-05-10 05:46:00,
2013-05-10 01:50:00,54.0,51.4,30.08,SSW,209,3.0,3.0,91,0.00,,---,0.00,VWS V14.01,2013-05-10 05:50:00,
2013-05-10 01:51:00,54.0,51.4,30.08,SSW,209,0.0,3.0,91,0.00,,---,0.00,VWS V14.01,2013-05-10 05:51:00,
2013-05-10 01:55:00,54.0,51.4,30.08,SSW,209,0.0,3.0,91,0.00,,---,0.00,VWS V14.01,2013-05-10 05:55:00,
2013-05-10 01:56:00,54.0,51.4,30.08,SSW,208,0.0,3.0,91,0.00,,---,0.00,VWS V14.01,2013-05-10 05:56:00,
2013-05-10 02:00:00,54.0,51.4,30.08,SSW,208,0.0,3.0,91,0.00,,---,0.00,VWS V14.01,2013-05-10 06:00:00,
2013-05-10 02:01:00,54.1,51.5,30.08,SSW,208,0.0,0.0,91,0.00,,---,0.00,VWS V14.01,2013-05-10 06:01:00,
2013-05-10 02:05:00,54.0,51.4,30.08,SSW,208,0.0,0.0,91,0.00,,---,0.00,VWS V14.01,2013-05-10 06:05:00,
2013-05-10 02:06:00,53.9,51.3,30.08,SSW,208,0.0,0.0,91,0.00,,---,0.00,VWS V14.01,2013-05-10 06:06:00,
2013-05-10 02:10:00,53.9,51.3,30.08,SSW,208,0.0,0.0,91,0.00,,---,0.00,VWS V14.01,2013-05-10 06:10:00,
2013-05-10 02:11:00,53.7,51.1,30.07,SSW,208,2.0,3.0,91,0.00,,---,0.00,VWS V14.01,2013-05-10 06:11:00,
2013-05-10 02:15:00,53.7,51.1,30.07,SSW,205,3.0,4.0,91,0.00,,---,0.00,VWS V14.01,2013-05-10 06:15:00,
2013-05-10 02:16:00,53.8,51.2,30.07,SSW,198,2.0,4.0,91,0.00,,---,0.00,VWS V14.01,2013-05-10 06:16:00,
2013-05-10 02:20:00,53.9,51.3,30.07,SSW,198,0.0,4.0,91,0.00,,---,0.00,VWS V14.01,2013-05-10 06:20:00,
2013-05-10 02:21:00,54.2,51.6,30.08,SSW,198,0.0,3.0,91,0.00,,---,0.00,VWS V14.01,2013-05-10 06:21:00,
2013-05-10 02:25:00,54.2,51.6,30.08,SSW,198,0.0,3.0,91,0.00,,---,0.00,VWS V14.01,2013-05-10 06:25:00,
2013-05-10 02:26:00,54.1,51.5,30.08,SSW,200,1.0,3.0,91,0.00,,---,0.00,VWS V14.01,2013-05-10 06:26:00,
2013-05-10 02:30:00,54.1,51.2,30.08,SSW,200,3.0,3.0,90,0.00,,---,0.00,VWS V14.01,2013-05-10 06:30:00,
2013-05-10 02:31:00,53.9,51.0,30.08,SSW,200,0.0,4.0,90,0.00,,---,0.00,VWS V14.01,2013-05-10 06:31:00,
2013-05-10 02:35:00,53.8,50.9,30.08,SSW,200,0.0,4.0,90,0.00,,---,0.00,VWS V14.01,2013-05-10 06:35:00,
2013-05-10 02:36:00,53.7,51.1,30.07,SSW,199,3.0,4.0,91,0.00,,---,0.00,VWS V14.01,2013-05-10 06:36:00,
2013-05-10 02:40:00,53.8,51.2,30.07,SSW,199,2.0,4.0,91,0.00,,---,0.00,VWS V14.01,2013-05-10 06:40:00,
2013-05-10 02:41:00,54.0,51.4,30.07,South,189,0.0,4.0,91,0.00,,---,0.00,VWS V14.01,2013-05-10 06:41:00,
2013-05-10 02:45:00,54.1,51.5,30.07,South,188,3.0,4.0,91,0.00,,---,0.00,VWS V14.01,2013-05-10 06:45:00,
2013-05-10 02:46:00,54.4,51.8,30.07,South,187,0.0,6.0,91,0.00,,---,0.00,VWS V14.01,2013-05-10 06:46:00,
2013-05-10 02:50:00,54.5,51.9,30.07,South,187,0.0,6.0,91,0.00,,---,0.00,VWS V14.01,2013-05-10 06:50:00,
2013-05-10 02:51:00,54.6,51.7,30.08,SSW,195,0.0,4.0,90,0.00,,---,0.00,VWS V14.01,2013-05-10 06:51:00,
2013-05-10 02:55:00,54.6,51.7,30.08,SSW,195,0.0,4.0,90,0.00,,---,0.00,VWS V14.01,2013-05-10 06:55:00,
2013-05-10 02:56:00,54.4,51.5,30.07,SSW,195,0.0,1.0,90,0.00,,---,0.00,VWS V14.01,2013-05-10 06:56:00,
2013-05-10 03:00:00,54.4,51.5,30.07,SSW,195,0.0,1.0,90,0.00,,---,0.00,VWS V14.01,2013-05-10 07:00:00,
2013-05-10 03:01:00,54.4,51.5,30.07,SSW,195,0.0,2.0,90,0.00,,---,0.00,VWS V14.01,2013-05-10 07:01:00,
2013-05-10 03:05:00,54.4,51.5,30.07,SSW,195,0.0,2.0,90,0.00,,---,0.00,VWS V14.01,2013-05-10 07:05:00,
2013-05-10 03:06:00,54.4,51.5,30.07,SSW,195,0.0,1.0,90,0.00,,---,0.00,VWS V14.01,2013-05-10 07:06:00,
2013-05-10 03:10:00,54.3,51.4,30.07,SSW,195,0.0,1.0,90,0.00,,---,0.00,VWS V14.01,2013-05-10 07:10:00,
2013-05-10 03:11:00,53.9,51.0,30.07,SSW,195,0.0,1.0,90,0.00,,---,0.00,VWS V14.01,2013-05-10 07:11:00,
2013-05-10 03:15:00,53.9,51.0,30.07,SSW,195,0.0,1.0,90,0.00,,---,0.00,VWS V14.01,2013-05-10 07:15:00,
2013-05-10 03:16:00,53.7,50.8,30.07,SSW,195,0.0,1.0,90,0.00,,---,0.00,VWS V14.01,2013-05-10 07:16:00,
2013-05-10 03:20:00,53.6,50.7,30.07,SSW,195,0.0,1.0,90,0.00,,---,0.00,VWS V14.01,2013-05-10 07:20:00,
2013-05-10 03:21:00,53.4,50.5,30.07,SSW,195,0.0,2.0,90,0.00,,---,0.00,VWS V14.01,2013-05-10 07:21:00,
2013-05-10 03:25:00,53.4,50.5,30.07,SSW,195,0.0,2.0,90,0.00,,---,0.00,VWS V14.01,2013-05-10 07:25:00,
2013-05-10 03:26:00,53.2,50.3,30.07,SSW,195,0.0,1.0,90,0.00,,---,0.00,VWS V14.01,2013-05-10 07:26:00,
2013-05-10 03:30:00,53.1,50.2,30.07,SSW,195,0.0,1.0,90,0.00,,---,0.00,VWS V14.01,2013-05-10 07:30:00,
2013-05-10 03:31:00,52.8,50.2,30.07,SSW,195,0.0,0.0,91,0.00,,---,0.00,VWS V14.01,2013-05-10 07:31:00,
2013-05-10 03:35:00,52.8,50.2,30.07,SSW,195,0.0,0.0,91,0.00,,---,0.00,VWS V14.01,2013-05-10 07:35:00,
2013-05-10 03:36:00,52.7,50.2,30.07,SSW,195,0.0,1.0,91,0.00,,---,0.00,VWS V14.01,2013-05-10 07:36:00,
2013-05-10 03:40:00,52.7,50.2,30.07,SSW,195,0.0,1.0,91,0.00,,---,0.00,VWS V14.01,2013-05-10 07:40:00,
2013-05-10 03:41:00,52.7,50.5,30.07,SSW,195,0.0,3.0,92,0.00,,---,0.00,VWS V14.01,2013-05-10 07:41:00,
2013-05-10 03:45:00,52.7,50.5,30.07,SSW,195,0.0,3.0,92,0.00,,---,0.00,VWS V14.01,2013-05-10 07:45:00,
2013-05-10 03:46:00,52.9,50.6,30.07,SSW,195,2.0,3.0,92,0.00,,---,0.00,VWS V14.01,2013-05-10 07:46:00,
2013-05-10 03:50:00,53.0,50.7,30.07,SSW,195,0.0,3.0,92,0.00,,---,0.00,VWS V14.01,2013-05-10 07:50:00,
2013-05-10 03:51:00,53.0,50.7,30.07,SSW,195,0.0,1.0,92,0.00,,---,0.00,VWS V14.01,2013-05-10 07:51:00,
2013-05-10 03:55:00,52.9,50.3,30.07,SSW,196,2.0,2.0,91,0.00,,---,0.00,VWS V14.01,2013-05-10 07:55:00,
2013-05-10 03:56:00,52.6,50.0,30.07,SSW,196,0.0,2.0,91,0.00,,---,0.00,VWS V14.01,2013-05-10 07:56:00,
2013-05-10 04:00:00,52.5,50.0,30.07,SSW,196,1.0,2.0,91,0.00,,---,0.00,VWS V14.01,2013-05-10 08:00:00,
2013-05-10 04:01:00,52.4,50.2,30.07,SSW,196,0.0,2.0,92,0.00,,---,0.00,VWS V14.01,2013-05-10 08:01:00,
2013-05-10 04:05:00,52.3,50.0,30.07,SSW,196,0.0,2.0,92,0.00,,---,0.00,VWS V14.01,2013-05-10 08:05:00,
2013-05-10 04:06:00,52.2,50.0,30.07,SSW,196,0.0,1.0,92,0.00,,---,0.00,VWS V14.01,2013-05-10 08:06:00,
2013-05-10 04:10:00,52.2,50.0,30.07,SSW,196,0.0,1.0,92,0.00,,---,0.00,VWS V14.01,2013-05-10 08:10:00,
2013-05-10 04:11:00,52.4,50.2,30.07,SSW,195,0.0,1.0,92,0.00,,---,0.00,VWS V14.01,2013-05-10 08:11:00,
2013-05-10 04:15:00,52.4,50.2,30.07,SSW,195,0.0,1.0,92,0.00,,---,0.00,VWS V14.01,2013-05-10 08:15:00,
2013-05-10 04:16:00,52.5,50.2,30.07,South,189,5.0,5.0,92,0.00,,---,0.00,VWS V14.01,2013-05-10 08:16:00,
2013-05-10 04:20:00,52.6,50.3,30.07,South,187,2.0,5.0,92,0.00,,---,0.00,VWS V14.01,2013-05-10 08:20:00,
2013-05-10 04:21:00,52.7,50.5,30.07,South,187,1.0,3.0,92,0.00,,---,0.00,VWS V14.01,2013-05-10 08:21:00,
2013-05-10 04:25:00,52.7,50.5,30.07,South,187,0.0,3.0,92,0.00,,---,0.00,VWS V14.01,2013-05-10 08:25:00,
2013-05-10 04:26:00,52.6,50.3,30.07,South,187,0.0,0.0,92,0.00,,---,0.00,VWS V14.01,2013-05-10 08:26:00,
2013-05-10 04:30:00,52.6,50.3,30.07,South,187,0.0,0.0,92,0.00,,---,0.00,VWS V14.01,2013-05-10 08:30:00,
2013-05-10 04:31:00,52.2,50.0,30.07,South,187,0.0,0.0,92,0.00,,---,0.00,VWS V14.01,2013-05-10 08:31:00,
2013-05-10 04:35:00,52.2,50.0,30.07,South,187,0.0,0.0,92,0.00,,---,0.00,VWS V14.01,2013-05-10 08:35:00,
2013-05-10 04:36:00,52.1,49.8,30.07,South,185,3.0,3.0,92,0.00,,---,0.00,VWS V14.01,2013-05-10 08:36:00,
2013-05-10 04:40:00,52.1,49.8,30.07,South,185,2.0,4.0,92,0.00,,---,0.00,VWS V14.01,2013-05-10 08:40:00,
2013-05-10 04:41:00,52.1,49.8,30.07,South,185,0.0,2.0,92,0.00,,---,0.00,VWS V14.01,2013-05-10 08:41:00,
2013-05-10 04:45:00,52.2,50.0,30.07,South,185,0.0,2.0,92,0.00,,---,0.00,VWS V14.01,2013-05-10 08:45:00,
2013-05-10 04:46:00,52.2,50.0,30.07,South,179,2.0,6.0,92,0.00,,---,0.00,VWS V14.01,2013-05-10 08:46:00,
2013-05-10 04:50:00,52.3,50.0,30.07,South,179,1.0,6.0,92,0.00,,---,0.00,VWS V14.01,2013-05-10 08:50:00,
2013-05-10 04:51:00,52.3,50.0,30.07,South,186,0.0,5.0,92,0.00,,---,0.00,VWS V14.01,2013-05-10 08:51:00,
2013-05-10 04:55:00,52.3,50.0,30.07,South,185,0.0,5.0,92,0.00,,---,0.00,VWS V14.01,2013-05-10 08:55:00,
2013-05-10 04:56:00,52.3,50.0,30.07,South,186,0.0,1.0,92,0.00,,---,0.00,VWS V14.01,2013-05-10 08:56:00,
2013-05-10 05:00:00,52.2,50.0,30.07,South,186,0.0,1.0,92,0.00,,---,0.00,VWS V14.01,2013-05-10 09:00:00,
2013-05-10 05:01:00,52.0,49.8,30.07,South,186,1.0,3.0,92,0.00,,---,0.00,VWS V14.01,2013-05-10 09:01:00,
2013-05-10 05:05:00,51.9,49.7,30.07,South,186,0.0,3.0,92,0.00,,---,0.00,VWS V14.01,2013-05-10 09:05:00,
2013-05-10 05:06:00,51.7,49.5,30.07,South,186,3.0,3.0,92,0.00,,---,0.00,VWS V14.01,2013-05-10 09:06:00,
2013-05-10 05:10:00,51.7,49.5,30.07,South,186,0.0,3.0,92,0.00,,---,0.00,VWS V14.01,2013-05-10 09:10:00,
2013-05-10 05:11:00,51.5,49.3,30.07,South,186,0.0,1.0,92,0.00,,---,0.00,VWS V14.01,2013-05-10 09:11:00,
2013-05-10 05:15:00,51.5,49.3,30.07,South,186,1.0,3.0,92,0.00,,---,0.00,VWS V14.01,2013-05-10 09:15:00,
2013-05-10 05:16:00,51.5,49.3,30.07,South,186,0.0,2.0,92,0.00,,---,0.00,VWS V14.01,2013-05-10 09:16:00,
2013-05-10 05:20:00,51.5,49.3,30.07,South,186,0.0,2.0,92,0.00,,---,0.00,VWS V14.01,2013-05-10 09:20:00,
2013-05-10 05:21:00,51.4,49.2,30.07,South,186,0.0,1.0,92,0.00,,---,0.00,VWS V14.01,2013-05-10 09:21:00,
2013-05-10 05:25:00,51.4,49.2,30.07,South,186,2.0,4.0,92,0.00,,---,0.00,VWS V14.01,2013-05-10 09:25:00,
2013-05-10 05:26:00,51.3,49.1,30.07,South,186,0.0,2.0,92,0.00,,---,0.00,VWS V14.01,2013-05-10 09:26:00,
2013-05-10 05:30:00,51.2,49.0,30.07,South,186,0.0,2.0,92,0.00,,---,0.00,VWS V14.01,2013-05-10 09:30:00,
2013-05-10 05:31:00,51.1,48.9,30.07,South,186,0.0,3.0,92,0.00,,---,0.00,VWS V14.01,2013-05-10 09:31:00,
2013-05-10 05:35:00,51.0,48.8,30.07,South,186,2.0,3.0,92,0.00,,---,0.00,VWS V14.01,2013-05-10 09:35:00,
2013-05-10 05:36:00,51.0,49.0,30.07,South,186,0.0,4.0,93,0.00,,---,0.00,VWS V14.01,2013-05-10 09:36:00,
2013-05-10 05:40:00,51.1,49.2,30.07,South,186,0.0,4.0,93,0.00,,---,0.00,VWS V14.01,2013-05-10 09:40:00,
2013-05-10 05:41:00,50.9,48.7,30.07,SSW,196,3.0,5.0,92,0.00,,---,0.00,VWS V14.01,2013-05-10 09:41:00,
2013-05-10 05:45:00,50.9,48.7,30.07,SSW,198,4.0,5.0,92,0.00,,---,0.00,VWS V14.01,2013-05-10 09:45:00,
2013-05-10 05:46:00,50.9,49.0,30.07,SSW,210,5.0,6.0,93,0.00,,---,0.00,VWS V14.01,2013-05-10 09:46:00,
2013-05-10 05:50:00,50.9,49.0,30.07,SSW,209,0.0,6.0,93,0.00,,---,0.00,VWS V14.01,2013-05-10 09:50:00,
2013-05-10 05:51:00,50.8,48.8,30.07,SSW,207,2.0,5.0,93,0.00,,---,0.00,VWS V14.01,2013-05-10 09:51:00,
2013-05-10 05:55:00,50.8,48.8,30.07,SSW,207,0.0,5.0,93,0.00,,---,0.00,VWS V14.01,2013-05-10 09:55:00,
2013-05-10 05:56:00,50.8,48.8,30.07,SSW,205,2.0,5.0,93,0.00,,---,0.00,VWS V14.01,2013-05-10 09:56:00,
2013-05-10 06:00:00,50.8,48.8,30.07,SSW,205,2.0,2.0,93,0.00,,---,0.00,VWS V14.01,2013-05-10 10:00:00,
2013-05-10 06:05:00,50.8,48.8,30.07,SSW,205,0.0,4.0,93,0.00,,---,0.00,VWS V14.01,2013-05-10 10:05:00,
2013-05-10 06:06:00,50.8,48.8,30.07,SSW,204,0.0,4.0,93,0.00,,---,0.00,VWS V14.01,2013-05-10 10:06:00,
2013-05-10 06:10:00,50.8,48.8,30.07,SSW,202,3.0,4.0,93,0.00,,---,0.00,VWS V14.01,2013-05-10 10:10:00,
2013-05-10 06:11:00,50.8,48.8,30.07,SSW,200,0.0,4.0,93,0.00,,---,0.00,VWS V14.01,2013-05-10 10:11:00,
2013-05-10 06:15:00,50.8,48.8,30.07,SSW,200,0.0,4.0,93,0.00,,---,0.00,VWS V14.01,2013-05-10 10:15:00,
2013-05-10 06:16:00,50.7,48.8,30.07,SSW,200,0.0,2.0,93,0.00,,---,0.00,VWS V14.01,2013-05-10 10:16:00,
2013-05-10 06:20:00,50.7,48.8,30.07,SSW,200,2.0,3.0,93,0.00,,---,0.00,VWS V14.01,2013-05-10 10:20:00,
2013-05-10 06:21:00,50.7,48.8,30.07,SSW,200,0.0,3.0,93,0.00,,---,0.00,VWS V14.01,2013-05-10 10:21:00,
2013-05-10 06:25:00,50.7,48.8,30.07,SSW,200,1.0,3.0,93,0.00,,---,0.00,VWS V14.01,2013-05-10 10:25:00,
2013-05-10 06:30:00,50.7,48.8,30.07,SSW,202,0.0,4.0,93,0.00,,---,0.00,VWS V14.01,2013-05-10 10:30:00,
2013-05-10 06:35:00,50.7,48.8,30.07,SSW,201,2.0,3.0,93,0.00,,---,0.00,VWS V14.01,2013-05-10 10:35:00,
2013-05-10 06:40:00,50.7,48.8,30.08,SSW,201,4.0,4.0,93,0.00,,---,0.00,VWS V14.01,2013-05-10 10:40:00,
2013-05-10 06:45:00,50.7,48.8,30.08,SSW,211,0.0,5.0,93,0.00,,---,0.00,VWS V14.01,2013-05-10 10:45:00,
2013-05-10 06:50:00,50.8,48.8,30.08,SSW,211,0.0,4.0,93,0.00,,---,0.00,VWS V14.01,2013-05-10 10:50:00,
2013-05-10 06:55:00,50.8,49.1,30.08,SSW,211,3.0,4.0,94,0.00,,---,0.00,VWS V14.01,2013-05-10 10:55:00,
2013-05-10 07:00:00,51.1,49.4,30.08,SW,215,1.0,5.0,94,0.00,,---,0.00,VWS V14.01,2013-05-10 11:00:00,
2013-05-10 07:05:00,51.3,49.6,30.08,SW,214,3.0,3.0,94,0.00,,---,0.00,VWS V14.01,2013-05-10 11:05:00,
2013-05-10 07:10:00,51.6,49.9,30.08,SW,215,0.0,4.0,94,0.00,,---,0.00,VWS V14.01,2013-05-10 11:10:00,
2013-05-10 07:15:00,52.1,50.4,30.08,SW,215,0.0,1.0,94,0.00,,---,0.00,VWS V14.01,2013-05-10 11:15:00,
2013-05-10 07:20:00,52.4,50.7,30.08,SW,215,0.0,0.0,94,0.00,,---,0.00,VWS V14.01,2013-05-10 11:20:00,
2013-05-10 07:25:00,52.9,51.2,30.08,SSW,209,2.0,4.0,94,0.00,,---,0.00,VWS V14.01,2013-05-10 11:25:00,
2013-05-10 07:30:00,53.3,51.6,30.08,SSW,210,1.0,5.0,94,0.00,,---,0.00,VWS V14.01,2013-05-10 11:30:00,
2013-05-10 07:35:00,53.4,51.4,30.08,SW,221,3.0,7.0,93,0.00,,---,0.00,VWS V14.01,2013-05-10 11:35:00,
2013-05-10 07:40:00,53.8,51.8,30.08,SW,230,1.0,5.0,93,0.00,,---,0.00,VWS V14.01,2013-05-10 11:40:00,
2013-05-10 07:45:00,54.2,52.2,30.08,SSW,205,0.0,4.0,93,0.00,,---,0.00,VWS V14.01,2013-05-10 11:45:00,
2013-05-10 07:50:00,54.6,52.6,30.08,SSW,200,0.0,6.0,93,0.00,,---,0.00,VWS V14.01,2013-05-10 11:50:00,
2013-05-10 07:55:00,55.1,52.8,30.08,SSW,205,3.0,4.0,92,0.00,,---,0.00,VWS V14.01,2013-05-10 11:55:00,
2013-05-10 08:00:00,55.4,53.1,30.08,SSW,207,4.0,4.0,92,0.00,,---,0.00,VWS V14.01,2013-05-10 12:00:00,
2013-05-10 08:05:00,55.7,53.1,30.08,SSW,208,3.0,5.0,91,0.00,,---,0.00,VWS V14.01,2013-05-10 12:05:00,
2013-05-10 08:10:00,56.0,53.4,30.08,SW,228,0.0,4.0,91,0.00,,---,0.00,VWS V14.01,2013-05-10 12:10:00,
2013-05-10 08:15:00,56.6,53.7,30.08,SSW,210,0.0,4.0,90,0.00,,---,0.00,VWS V14.01,2013-05-10 12:15:00,
2013-05-10 08:20:00,57.1,53.9,30.08,SSW,205,0.0,4.0,89,0.00,,---,0.00,VWS V14.01,2013-05-10 12:20:00,
2013-05-10 08:25:00,58.0,54.5,30.08,SSW,200,0.0,3.0,88,0.00,,---,0.00,VWS V14.01,2013-05-10 12:25:00,
2013-05-10 08:30:00,59.0,55.1,30.08,SSW,202,0.0,4.0,87,0.00,,---,0.00,VWS V14.01,2013-05-10 12:30:00,
2013-05-10 08:35:00,59.6,55.1,30.08,SSW,199,1.0,6.0,85,0.00,,---,0.00,VWS V14.01,2013-05-10 12:35:00,
2013-05-10 08:40:00,59.9,55.1,30.08,South,178,2.0,6.0,84,0.00,,---,0.00,VWS V14.01,2013-05-10 12:40:00,
2013-05-10 08:45:00,60.4,55.2,30.08,SW,219,6.0,6.0,83,0.00,,---,0.00,VWS V14.01,2013-05-10 12:45:00,
2013-05-10 08:50:00,60.8,55.9,30.08,SSW,210,0.0,5.0,84,0.00,,---,0.00,VWS V14.01,2013-05-10 12:50:00,
2013-05-10 08:55:00,61.2,56.0,30.08,SSW,204,3.0,6.0,83,0.00,,---,0.00,VWS V14.01,2013-05-10 12:55:00,
2013-05-10 09:00:00,61.6,56.4,30.07,SSW,206,4.0,4.0,83,0.00,,---,0.00,VWS V14.01,2013-05-10 13:00:00,
2013-05-10 09:05:00,62.0,56.5,30.07,SSW,207,2.0,5.0,82,0.00,,---,0.00,VWS V14.01,2013-05-10 13:05:00,
2013-05-10 09:10:00,62.5,57.3,30.07,SSW,205,0.0,5.0,83,0.00,,---,0.00,VWS V14.01,2013-05-10 13:10:00,
2013-05-10 09:15:00,63.5,57.2,30.07,SW,219,5.0,7.0,80,0.00,,---,0.00,VWS V14.01,2013-05-10 13:15:00,
2013-05-10 09:20:00,64.2,57.9,30.07,SW,232,0.0,4.0,80,0.00,,---,0.00,VWS V14.01,2013-05-10 13:20:00,
2013-05-10 09:25:00,64.8,57.8,30.07,SSW,211,3.0,5.0,78,0.00,,---,0.00,VWS V14.01,2013-05-10 13:25:00,
2013-05-10 09:30:00,65.2,57.8,30.07,SSW,200,0.0,5.0,77,0.00,,---,0.00,VWS V14.01,2013-05-10 13:30:00,
2013-05-10 09:35:00,65.6,57.1,30.07,South,189,1.0,7.0,74,0.00,,---,0.00,VWS V14.01,2013-05-10 13:35:00,
2013-05-10 09:40:00,66.0,57.9,30.07,South,190,0.0,3.0,75,0.00,,---,0.00,VWS V14.01,2013-05-10 13:40:00,
2013-05-10 09:45:00,66.3,58.2,30.07,SSW,209,0.0,5.0,75,0.00,,---,0.00,VWS V14.01,2013-05-10 13:45:00,
2013-05-10 09:50:00,66.5,58.3,30.07,SSW,205,1.0,4.0,75,0.00,,---,0.00,VWS V14.01,2013-05-10 13:50:00,
2013-05-10 09:55:00,67.1,58.5,30.06,SSW,208,0.0,3.0,74,0.00,,---,0.00,VWS V14.01,2013-05-10 13:55:00,
2013-05-10 10:00:00,67.6,58.7,30.06,SW,226,0.0,5.0,73,0.00,,---,0.00,VWS V14.01,2013-05-10 14:00:00,
2013-05-10 10:05:00,68.4,59.4,30.06,SW,216,0.0,3.0,73,0.00,,---,0.00,VWS V14.01,2013-05-10 14:05:00,
2013-05-10 10:10:00,69.0,59.6,30.06,SW,215,3.0,5.0,72,0.00,,---,0.00,VWS V14.01,2013-05-10 14:10:00,
2013-05-10 10:15:00,69.8,60.0,30.06,SW,215,0.0,4.0,71,0.00,,---,0.00,VWS V14.01,2013-05-10 14:15:00,
2013-05-10 10:20:00,70.4,59.3,30.06,SW,216,1.0,4.0,68,0.00,,---,0.00,VWS V14.01,2013-05-10 14:20:00,
2013-05-10 10:25:00,71.2,59.7,30.06,SSW,201,0.0,4.0,67,0.00,,---,0.00,VWS V14.01,2013-05-10 14:25:00,
2013-05-10 10:30:00,72.2,61.1,30.05,SSW,200,0.0,5.0,68,0.00,,---,0.00,VWS V14.01,2013-05-10 14:30:00,
2013-05-10 10:35:00,73.2,59.9,30.05,South,179,0.0,7.0,63,0.00,,---,0.00,VWS V14.01,2013-05-10 14:35:00,
2013-05-10 10:40:00,74.3,60.0,30.05,SSE,151,4.0,6.0,61,0.00,,---,0.00,VWS V14.01,2013-05-10 14:40:00,
2013-05-10 10:45:00,75.1,60.3,30.05,SSW,198,8.0,11.0,60,0.00,,---,0.00,VWS V14.01,2013-05-10 14:45:00,
2013-05-10 10:50:00,75.3,59.5,30.05,South,184,2.0,11.0,58,0.00,,---,0.00,VWS V14.01,2013-05-10 14:50:00,
2013-05-10 10:55:00,75.4,59.1,30.05,SSW,198,7.0,12.0,57,0.00,,---,0.00,VWS V14.01,2013-05-10 14:55:00,
2013-05-10 11:00:00,75.5,59.7,30.05,SSE,161,6.0,11.0,58,0.00,,---,0.00,VWS V14.01,2013-05-10 15:00:00,
2013-05-10 11:05:00,76.2,59.9,30.05,South,174,12.0,12.0,57,0.00,,---,0.00,VWS V14.01,2013-05-10 15:05:00,
2013-05-10 11:10:00,76.4,59.6,30.05,SSE,167,8.0,13.0,56,0.00,,---,0.00,VWS V14.01,2013-05-10 15:10:00,
2013-05-10 11:15:00,76.7,59.3,30.04,SSE,153,8.0,12.0,55,0.00,,---,0.00,VWS V14.01,2013-05-10 15:15:00,
2013-05-10 11:20:00,77.3,59.4,30.04,SE,128,6.0,10.0,54,0.00,,---,0.00,VWS V14.01,2013-05-10 15:20:00,
2013-05-10 11:25:00,77.6,59.1,30.03,SE,141,7.0,13.0,53,0.00,,---,0.00,VWS V14.01,2013-05-10 15:25:00,
2013-05-10 11:30:00,77.7,58.7,30.03,SE,140,7.0,12.0,52,0.00,,---,0.00,VWS V14.01,2013-05-10 15:30:00,
2013-05-10 11:35:00,78.0,59.0,30.04,SSE,155,6.0,11.0,52,0.00,,---,0.00,VWS V14.01,2013-05-10 15:35:00,
2013-05-10 11:40:00,78.2,59.2,30.03,South,179,7.0,12.0,52,0.00,,---,0.00,VWS V14.01,2013-05-10 15:40:00,
2013-05-10 11:45:00,78.3,59.2,30.03,South,188,7.0,11.0,52,0.00,,---,0.00,VWS V14.01,2013-05-10 15:45:00,
2013-05-10 11:50:00,78.4,60.9,30.03,SSW,192,5.0,10.0,55,0.00,,---,0.00,VWS V14.01,2013-05-10 15:50:00,
2013-05-10 11:55:00,78.6,57.9,30.03,SSW,209,4.0,13.0,49,0.00,,---,0.00,VWS V14.01,2013-05-10 15:55:00,
2013-05-10 12:00:00,79.0,58.8,30.03,South,178,0.0,13.0,50,0.00,,---,0.00,VWS V14.01,2013-05-10 16:00:00,
2013-05-10 12:05:00,79.3,57.9,30.03,SSE,157,4.0,16.0,48,0.00,,---,0.00,VWS V14.01,2013-05-10 16:05:00,
2013-05-10 12:10:00,79.5,58.1,30.02,SSW,197,7.0,17.0,48,0.00,,---,0.00,VWS V14.01,2013-05-10 16:10:00,
2013-05-10 12:15:00,79.7,57.7,30.02,South,189,11.0,18.0,47,0.00,,---,0.00,VWS V14.01,2013-05-10 16:15:00,
2013-05-10 12:20:00,79.9,58.5,30.02,SSE,148,5.0,15.0,48,0.00,,---,0.00,VWS V14.01,2013-05-10 16:20:00,
2013-05-10 12:25:00,80.2,58.8,30.02,SSE,150,8.0,12.0,48,0.00,,---,0.00,VWS V14.01,2013-05-10 16:25:00,
2013-05-10 12:30:00,80.5,57.2,30.02,SSW,193,4.0,16.0,45,0.00,,---,0.00,VWS V14.01,2013-05-10 16:30:00,
2013-05-10 12:35:00,80.4,57.1,30.01,South,169,9.0,14.0,45,0.00,,---,0.00,VWS V14.01,2013-05-10 16:35:00,
2013-05-10 12:40:00,80.6,58.5,30.01,SW,234,10.0,16.0,47,0.00,,---,0.00,VWS V14.01,2013-05-10 16:40:00,
2013-05-10 12:45:00,80.9,58.2,30.01,SSW,209,11.0,12.0,46,0.00,,---,0.00,VWS V14.01,2013-05-10 16:45:00,
2013-05-10 12:50:00,81.0,57.7,30.01,SW,229,8.0,16.0,45,0.00,,---,0.00,VWS V14.01,2013-05-10 16:50:00,
2013-05-10 12:55:00,81.2,55.3,30.01,SSW,194,12.0,17.0,41,0.00,,---,0.00,VWS V14.01,2013-05-10 16:55:00,
2013-05-10 13:00:00,81.5,58.1,30.01,SW,227,8.0,12.0,45,0.00,,---,0.00,VWS V14.01,2013-05-10 17:00:00,
2013-05-10 13:05:00,81.5,56.9,30.01,South,191,8.0,19.0,43,0.00,,---,0.00,VWS V14.01,2013-05-10 17:05:00,
2013-05-10 13:10:00,81.7,55.7,30.01,SSW,207,9.0,14.0,41,0.00,,---,0.00,VWS V14.01,2013-05-10 17:10:00,
2013-05-10 13:15:00,81.7,57.7,30.00,SSW,202,3.0,17.0,44,0.00,,---,0.00,VWS V14.01,2013-05-10 17:15:00,
2013-05-10 13:20:00,82.0,56.7,30.01,South,184,5.0,11.0,42,0.00,,---,0.00,VWS V14.01,2013-05-10 17:20:00,
2013-05-10 13:25:00,82.3,56.9,30.01,SSW,205,2.0,15.0,42,0.00,,---,0.00,VWS V14.01,2013-05-10 17:25:00,
2013-05-10 13:30:00,82.4,56.4,30.00,SW,236,4.0,12.0,41,0.00,,---,0.00,VWS V14.01,2013-05-10 17:30:00,
2013-05-10 13:35:00,82.4,58.3,30.00,SW,227,3.0,10.0,44,0.00,,---,0.00,VWS V14.01,2013-05-10 17:35:00,
2013-05-10 13:40:00,82.4,57.0,30.00,SSW,205,9.0,14.0,42,0.00,,---,0.00,VWS V14.01,2013-05-10 17:40:00,
2013-05-10 13:45:00,82.1,57.4,30.00,SE,144,7.0,15.0,43,0.00,,---,0.00,VWS V14.01,2013-05-10 17:45:00,
2013-05-10 13:50:00,82.4,58.3,30.00,South,188,7.0,19.0,44,0.00,,---,0.00,VWS V14.01,2013-05-10 17:50:00,
2013-05-10 13:55:00,82.1,56.1,30.00,SSW,209,7.0,14.0,41,0.00,,---,0.00,VWS V14.01,2013-05-10 17:55:00,
2013-05-10 14:00:00,82.1,56.1,30.00,SW,217,10.0,17.0,41,0.00,,---,0.00,VWS V14.01,2013-05-10 18:00:00,
2013-05-10 14:05:00,82.2,57.5,29.99,South,182,6.0,10.0,43,0.00,,---,0.00,VWS V14.01,2013-05-10 18:05:00,
2013-05-10 14:10:00,82.6,57.9,29.98,SSE,165,9.0,14.0,43,0.00,,---,0.00,VWS V14.01,2013-05-10 18:10:00,
2013-05-10 14:15:00,82.5,59.0,29.98,SSW,205,4.0,10.0,45,0.00,,---,0.00,VWS V14.01,2013-05-10 18:15:00,
2013-05-10 14:20:00,82.7,58.0,29.98,SSW,200,2.0,21.0,43,0.00,,---,0.00,VWS V14.01,2013-05-10 18:20:00,
2013-05-10 14:25:00,82.7,57.3,29.97,SSE,165,8.0,16.0,42,0.00,,---,0.00,VWS V14.01,2013-05-10 18:25:00,
2013-05-10 14:30:00,82.8,59.3,29.97,South,177,10.0,14.0,45,0.00,,---,0.00,VWS V14.01,2013-05-10 18:30:00,
2013-05-10 14:35:00,83.1,57.0,29.97,SW,218,10.0,14.0,41,0.00,,---,0.00,VWS V14.01,2013-05-10 18:35:00,
2013-05-10 14:40:00,82.9,57.5,29.97,SSW,207,19.0,19.0,42,0.00,,---,0.00,VWS V14.01,2013-05-10 18:40:00,
2013-05-10 14:45:00,82.5,56.5,29.97,South,186,6.0,14.0,41,0.00,,---,0.00,VWS V14.01,2013-05-10 18:45:00,
2013-05-10 14:50:00,82.5,57.1,29.97,SW,216,5.0,12.0,42,0.00,,---,0.00,VWS V14.01,2013-05-10 18:50:00,
2013-05-10 14:55:00,82.4,55.7,29.97,SW,216,1.0,11.0,40,0.00,,---,0.00,VWS V14.01,2013-05-10 18:55:00,
2013-05-10 15:00:00,82.3,56.3,29.96,SSW,202,4.0,12.0,41,0.00,,---,0.00,VWS V14.01,2013-05-10 19:00:00,
2013-05-10 15:05:00,81.8,55.1,29.96,SW,232,5.0,15.0,40,0.00,,---,0.00,VWS V14.01,2013-05-10 19:05:00,
2013-05-10 15:10:00,81.2,56.6,29.96,SW,215,7.0,12.0,43,0.00,,---,0.00,VWS V14.01,2013-05-10 19:10:00,
2013-05-10 15:15:00,81.0,55.1,29.95,WSW,238,7.0,13.0,41,0.00,,---,0.00,VWS V14.01,2013-05-10 19:15:00,
2013-05-10 15:20:00,80.9,55.7,29.95,South,175,11.0,12.0,42,0.00,,---,0.00,VWS V14.01,2013-05-10 19:20:00,
2013-05-10 15:25:00,81.0,56.4,29.95,SE,140,6.0,15.0,43,0.00,,---,0.00,VWS V14.01,2013-05-10 19:25:00,
2013-05-10 15:30:00,81.2,57.2,29.95,SSW,199,5.0,15.0,44,0.00,,---,0.00,VWS V14.01,2013-05-10 19:30:00,
2013-05-10 15:35:00,81.4,57.4,29.95,SW,214,4.0,8.0,44,0.00,,---,0.00,VWS V14.01,2013-05-10 19:35:00,
2013-05-10 15:40:00,81.9,57.2,29.94,SW,216,5.0,12.0,43,0.00,,---,0.00,VWS V14.01,2013-05-10 19:40:00,
2013-05-10 15:45:00,82.4,57.0,29.94,SSW,206,11.0,18.0,42,0.00,,---,0.00,VWS V14.01,2013-05-10 19:45:00,
2013-05-10 15:50:00,82.4,58.3,29.94,SSE,167,7.0,19.0,44,0.00,,---,0.00,VWS V14.01,2013-05-10 19:50:00,
2013-05-10 15:55:00,82.3,58.9,29.94,SSW,193,8.0,13.0,45,0.00,,---,0.00,VWS V14.01,2013-05-10 19:55:00,
2013-05-10 16:00:00,82.1,58.7,29.94,SSW,194,0.0,13.0,45,0.00,,---,0.00,VWS V14.01,2013-05-10 20:00:00,
2013-05-10 16:05:00,81.8,59.0,29.94,SSE,165,0.0,8.0,46,0.00,,---,0.00,VWS V14.01,2013-05-10 20:05:00,
2013-05-10 16:10:00,81.5,59.3,29.94,SSE,167,5.0,10.0,47,0.00,,---,0.00,VWS V14.01,2013-05-10 20:10:00,
2013-05-10 16:15:00,81.5,59.3,29.94,South,190,5.0,7.0,47,0.00,,---,0.00,VWS V14.01,2013-05-10 20:15:00,
2013-05-10 16:20:00,81.3,58.6,29.93,SSE,165,7.0,12.0,46,0.00,,---,0.00,VWS V14.01,2013-05-10 20:20:00,
2013-05-10 16:25:00,80.9,58.8,29.93,SSE,156,9.0,16.0,47,0.00,,---,0.00,VWS V14.01,2013-05-10 20:25:00,
2013-05-10 16:30:00,80.7,59.2,29.93,SSW,201,3.0,12.0,48,0.00,,---,0.00,VWS V14.01,2013-05-10 20:30:00,
2013-05-10 16:35:00,80.8,59.9,29.93,SSE,165,8.0,9.0,49,0.00,,---,0.00,VWS V14.01,2013-05-10 20:35:00,
2013-05-10 16:40:00,80.8,59.3,29.93,SSE,161,6.0,10.0,48,0.00,,---,0.00,VWS V14.01,2013-05-10 20:40:00,
2013-05-10 16:45:00,80.7,58.6,29.93,SSE,150,8.0,15.0,47,0.00,,---,0.00,VWS V14.01,2013-05-10 20:45:00,
2013-05-10 16:50:00,80.5,58.4,29.93,South,180,5.0,14.0,47,0.00,,---,0.00,VWS V14.01,2013-05-10 20:50:00,
2013-05-10 16:55:00,80.6,59.7,29.93,SE,141,1.0,10.0,49,0.00,,---,0.00,VWS V14.01,2013-05-10 20:55:00,
2013-05-10 17:00:00,80.6,59.1,29.93,South,186,9.0,18.0,48,0.00,,---,0.00,VWS V14.01,2013-05-10 21:00:00,
2013-05-10 17:05:00,80.5,59.0,29.93,SW,219,5.0,14.0,48,0.00,,---,0.00,VWS V14.01,2013-05-10 21:05:00,
2013-05-10 17:10:00,80.3,58.8,29.93,South,191,2.0,9.0,48,0.00,,---,0.00,VWS V14.01,2013-05-10 21:10:00,
2013-05-10 17:15:00,80.3,58.8,29.93,SSE,156,10.0,12.0,48,0.00,,---,0.00,VWS V14.01,2013-05-10 21:15:00,
2013-05-10 17:20:00,80.3,58.8,29.93,South,175,5.0,12.0,48,0.00,,---,0.00,VWS V14.01,2013-05-10 21:20:00,
2013-05-10 17:25:00,80.2,58.2,29.93,South,188,6.0,19.0,47,0.00,,---,0.00,VWS V14.01,2013-05-10 21:25:00,
2013-05-10 17:30:00,80.1,58.1,29.92,SSE,165,1.0,18.0,47,0.00,,---,0.00,VWS V14.01,2013-05-10 21:30:00,
2013-05-10 17:35:00,79.8,58.4,29.92,SE,146,5.0,20.0,48,0.00,,---,0.00,VWS V14.01,2013-05-10 21:35:00,
2013-05-10 17:40:00,79.7,57.7,29.92,SSE,161,5.0,13.0,47,0.00,,---,0.00,VWS V14.01,2013-05-10 21:40:00,
2013-05-10 17:45:00,79.6,57.6,29.92,South,185,4.0,9.0,47,0.00,,---,0.00,VWS V14.01,2013-05-10 21:45:00,
2013-05-10 17:50:00,79.6,57.6,29.92,SSE,164,5.0,12.0,47,0.00,,---,0.00,VWS V14.01,2013-05-10 21:50:00,
2013-05-10 17:55:00,79.5,57.5,29.92,South,176,6.0,14.0,47,0.00,,---,0.00,VWS V14.01,2013-05-10 21:55:00,
2013-05-10 17:58:00,79.5,57.5,29.92,SSE,148,6.0,6.0,47,0.00,,---,0.00,VWS V14.01,2013-05-10 21:58:00,
2013-05-10 18:00:00,79.5,57.5,29.92,South,184,4.0,14.0,47,0.00,,---,0.00,VWS V14.01,2013-05-10 22:00:00,
2013-05-10 18:03:00,79.3,57.3,29.91,South,169,7.0,13.0,47,0.00,,---,0.00,VWS V14.01,2013-05-10 22:03:00,
2013-05-10 18:05:00,79.3,57.3,29.91,SSE,155,7.0,14.0,47,0.00,,---,0.00,VWS V14.01,2013-05-10 22:05:00,
2013-05-10 18:08:00,79.2,57.8,29.91,SSE,160,8.0,12.0,48,0.00,,---,0.00,VWS V14.01,2013-05-10 22:08:00,
2013-05-10 18:10:00,79.2,57.8,29.91,South,175,8.0,13.0,48,0.00,,---,0.00,VWS V14.01,2013-05-10 22:10:00,
2013-05-10 18:13:00,78.9,57.6,29.91,SSE,152,8.0,14.0,48,0.00,,---,0.00,VWS V14.01,2013-05-10 22:13:00,
2013-05-10 18:15:00,79.0,57.7,29.92,South,176,4.0,13.0,48,0.00,,---,0.00,VWS V14.01,2013-05-10 22:15:00,
2013-05-10 18:18:00,78.6,57.3,29.92,South,176,6.0,11.0,48,0.00,,---,0.00,VWS V14.01,2013-05-10 22:18:00,
2013-05-10 18:20:00,78.7,57.4,29.92,South,174,7.0,14.0,48,0.00,,---,0.00,VWS V14.01,2013-05-10 22:20:00,
2013-05-10 18:23:00,78.5,57.8,29.92,SSE,158,8.0,10.0,49,0.00,,---,0.00,VWS V14.01,2013-05-10 22:23:00,
2013-05-10 18:25:00,78.5,57.8,29.91,SSW,192,7.0,19.0,49,0.00,,---,0.00,VWS V14.01,2013-05-10 22:25:00,
2013-05-10 18:28:00,78.3,57.6,29.91,South,184,5.0,8.0,49,0.00,,---,0.00,VWS V14.01,2013-05-10 22:28:00,
2013-05-10 18:30:00,78.3,57.6,29.92,South,171,4.0,15.0,49,0.00,,---,0.00,VWS V14.01,2013-05-10 22:30:00,
2013-05-10 18:33:00,78.1,57.4,29.91,SSE,160,7.0,18.0,49,0.00,,---,0.00,VWS V14.01,2013-05-10 22:33:00,
2013-05-10 18:35:00,78.1,57.4,29.91,SSW,193,9.0,13.0,49,0.00,,---,0.00,VWS V14.01,2013-05-10 22:35:00,
2013-05-10 18:38:00,78.0,57.9,29.92,SSW,206,0.0,8.0,50,0.00,,---,0.00,VWS V14.01,2013-05-10 22:38:00,
2013-05-10 18:40:00,78.0,57.3,29.92,SSW,198,6.0,18.0,49,0.00,,---,0.00,VWS V14.01,2013-05-10 22:40:00,
2013-05-10 18:43:00,77.8,57.7,29.92,SSW,198,6.0,8.0,50,0.00,,---,0.00,VWS V14.01,2013-05-10 22:43:00,
2013-05-10 18:45:00,77.8,57.7,29.92,SW,221,8.0,13.0,50,0.00,,---,0.00,VWS V14.01,2013-05-10 22:45:00,
2013-05-10 18:48:00,77.3,57.8,29.92,SSW,203,0.0,3.0,51,0.00,,---,0.00,VWS V14.01,2013-05-10 22:48:00,
2013-05-10 18:50:00,77.5,58.0,29.93,SSW,203,2.0,8.0,51,0.00,,---,0.00,VWS V14.01,2013-05-10 22:50:00,
2013-05-10 18:53:00,76.8,57.9,29.92,SSW,209,0.0,5.0,52,0.00,,---,0.00,VWS V14.01,2013-05-10 22:53:00,
2013-05-10 18:55:00,76.9,58.0,29.92,SSW,209,1.0,4.0,52,0.00,,---,0.00,VWS V14.01,2013-05-10 22:55:00,
2013-05-10 18:58:00,76.4,58.5,29.93,West,265,6.0,6.0,54,0.00,,---,0.00,VWS V14.01,2013-05-10 22:58:00,
2013-05-10 19:00:00,76.5,58.1,29.93,SW,224,4.0,7.0,53,0.00,,---,0.00,VWS V14.01,2013-05-10 23:00:00,
2013-05-10 19:03:00,75.4,60.6,29.95,WNW,293,20.0,36.0,60,0.00,,---,0.00,VWS V14.01,2013-05-10 23:03:00,
2013-05-10 19:05:00,75.8,60.5,29.95,NW,306,29.0,35.0,59,0.00,,---,0.00,VWS V14.01,2013-05-10 23:05:00,
2013-05-10 19:08:00,72.9,60.5,29.94,WNW,300,21.0,25.0,65,0.01,,---,0.01,VWS V14.01,2013-05-10 23:08:00,
2013-05-10 19:10:00,73.5,60.2,29.95,WNW,300,23.0,36.0,63,0.01,,---,0.01,VWS V14.01,2013-05-10 23:10:00,
2013-05-10 19:13:00,70.3,59.7,29.96,WNW,289,13.0,22.0,69,0.02,,---,0.02,VWS V14.01,2013-05-10 23:13:00,
2013-05-10 19:15:00,70.8,59.7,29.96,West,274,18.0,29.0,68,0.02,,---,0.02,VWS V14.01,2013-05-10 23:15:00,
2013-05-10 19:18:00,68.7,60.1,29.95,WSW,246,10.0,12.0,74,0.03,,---,0.03,VWS V14.01,2013-05-10 23:18:00,
2013-05-10 19:20:00,69.0,60.0,29.95,WNW,284,12.0,25.0,73,0.03,,---,0.03,VWS V14.01,2013-05-10 23:20:00,
2013-05-10 19:23:00,67.5,60.4,29.95,West,268,5.0,13.0,78,0.07,,---,0.07,VWS V14.01,2013-05-10 23:23:00,
2013-05-10 19:25:00,67.8,60.3,29.96,WNW,289,13.0,14.0,77,0.06,,---,0.06,VWS V14.01,2013-05-10 23:25:00,
2013-05-10 19:28:00,66.7,60.7,29.95,West,265,0.0,1.0,81,0.08,,---,0.08,VWS V14.01,2013-05-10 23:28:00,
2013-05-10 19:30:00,66.9,60.5,29.95,West,265,0.0,13.0,80,0.08,,---,0.08,VWS V14.01,2013-05-10 23:30:00,
2013-05-10 19:33:00,66.2,61.2,29.96,SSW,211,2.0,4.0,84,0.08,,---,0.08,VWS V14.01,2013-05-10 23:33:00,
2013-05-10 19:35:00,66.3,61.0,29.96,West,264,2.0,3.0,83,0.08,,---,0.08,VWS V14.01,2013-05-10 23:35:00,
2013-05-10 19:38:00,65.8,61.2,29.96,SE,144,0.0,0.0,85,0.08,,---,0.08,VWS V14.01,2013-05-10 23:38:00,
2013-05-10 19:40:00,65.9,61.3,29.96,SE,144,0.0,4.0,85,0.08,,---,0.08,VWS V14.01,2013-05-10 23:40:00,
2013-05-10 19:43:00,65.5,61.2,29.96,SE,141,0.0,1.0,86,0.08,,---,0.08,VWS V14.01,2013-05-10 23:43:00,
2013-05-10 19:45:00,65.6,61.3,29.96,SE,141,0.0,4.0,86,0.08,,---,0.08,VWS V14.01,2013-05-10 23:45:00,
2013-05-10 19:48:00,65.2,61.2,29.95,SE,141,0.0,1.0,87,0.08,,---,0.08,VWS V14.01,2013-05-10 23:48:00,
2013-05-10 19:50:00,65.3,61.3,29.95,SE,141,0.0,2.0,87,0.08,,---,0.08,VWS V14.01,2013-05-10 23:50:00,
2013-05-10 19:53:00,65.0,61.4,29.95,SE,138,0.0,1.0,88,0.08,,---,0.08,VWS V14.01,2013-05-10 23:53:00,
2013-05-10 19:55:00,65.1,61.5,29.95,SE,138,0.0,4.0,88,0.08,,---,0.08,VWS V14.01,2013-05-10 23:55:00,
2013-05-10 19:58:00,64.8,61.2,29.95,SE,138,0.0,0.0,88,0.08,,---,0.08,VWS V14.01,2013-05-10 23:58:00,
2013-05-10 20:00:00,64.9,61.3,29.95,SE,138,0.0,1.0,88,0.08,,---,0.08,VWS V14.01,2013-05-11 00:00:00,
2013-05-10 20:03:00,64.4,60.8,29.96,SE,136,0.0,4.0,88,0.08,,---,0.08,VWS V14.01,2013-05-11 00:03:00,
2013-05-10 20:05:00,64.5,60.9,29.95,SE,136,4.0,5.0,88,0.08,,---,0.08,VWS V14.01,2013-05-11 00:05:00,
2013-05-10 20:08:00,64.1,60.8,29.97,SE,136,0.0,0.0,89,0.07,,---,0.08,VWS V14.01,2013-05-11 00:08:00,
2013-05-10 20:10:00,64.2,60.9,29.96,SE,136,0.0,4.0,89,0.08,,---,0.08,VWS V14.01,2013-05-11 00:10:00,
2013-05-10 20:13:00,64.0,61.0,29.97,SE,136,0.0,0.0,90,0.06,,---,0.08,VWS V14.01,2013-05-11 00:13:00,
2013-05-10 20:15:00,64.0,61.0,29.97,SE,136,0.0,0.0,90,0.07,,---,0.08,VWS V14.01,2013-05-11 00:15:00,
2013-05-10 20:18:00,63.9,60.9,29.96,SE,136,0.0,1.0,90,0.05,,---,0.08,VWS V14.01,2013-05-11 00:18:00,
2013-05-10 20:20:00,63.9,60.9,29.96,SE,136,0.0,4.0,90,0.06,,---,0.08,VWS V14.01,2013-05-11 00:20:00,
2013-05-10 20:23:00,63.8,60.8,29.96,East,92,2.0,4.0,90,0.02,,---,0.08,VWS V14.01,2013-05-11 00:23:00,
2013-05-10 20:25:00,63.8,60.8,29.96,SE,135,0.0,1.0,90,0.05,,---,0.08,VWS V14.01,2013-05-11 00:25:00,
2013-05-10 20:28:00,63.8,60.8,29.96,NE,54,0.0,2.0,90,0.00,,---,0.08,VWS V14.01,2013-05-11 00:28:00,
2013-05-10 20:30:00,63.8,60.8,29.96,NE,53,2.0,4.0,90,0.02,,---,0.08,VWS V14.01,2013-05-11 00:30:00,
2013-05-10 20:33:00,63.8,61.1,29.97,North,355,5.0,6.0,91,0.00,,---,0.08,VWS V14.01,2013-05-11 00:33:00,
2013-05-10 20:35:00,63.7,61.0,29.97,NNE,17,4.0,4.0,91,0.00,,---,0.08,VWS V14.01,2013-05-11 00:35:00,
2013-05-10 20:38:00,63.8,61.1,29.98,West,277,11.0,13.0,91,0.00,,---,0.08,VWS V14.01,2013-05-11 00:38:00,
2013-05-10 20:40:00,63.8,61.1,29.98,North,355,0.0,6.0,91,0.00,,---,0.08,VWS V14.01,2013-05-11 00:40:00,
2013-05-10 20:43:00,63.7,60.7,29.99,West,263,7.0,15.0,90,0.00,,---,0.08,VWS V14.01,2013-05-11 00:43:00,
2013-05-10 20:45:00,63.8,60.8,29.98,WNW,288,14.0,16.0,90,0.00,,---,0.08,VWS V14.01,2013-05-11 00:45:00,
2013-05-10 20:48:00,64.1,60.8,29.98,WNW,290,15.0,24.0,89,0.02,,---,0.10,VWS V14.01,2013-05-11 00:48:00,
2013-05-10 20:50:00,64.0,60.7,29.98,West,266,20.0,30.0,89,0.01,,---,0.09,VWS V14.01,2013-05-11 00:50:00,
2013-05-10 20:53:00,64.4,60.8,30.00,West,265,11.0,19.0,88,0.03,,---,0.11,VWS V14.01,2013-05-11 00:53:00,
2013-05-10 20:55:00,64.3,60.7,29.99,West,280,16.0,24.0,88,0.02,,---,0.10,VWS V14.01,2013-05-11 00:55:00,
2013-05-10 20:58:00,64.5,60.5,30.00,West,273,19.0,24.0,87,0.09,,---,0.17,VWS V14.01,2013-05-11 00:58:00,
2013-05-10 21:00:00,64.5,60.5,30.01,WNW,288,24.0,28.0,87,0.07,,---,0.15,VWS V14.01,2013-05-11 01:00:00,
2013-05-10 21:03:00,64.5,60.5,30.00,West,277,8.0,17.0,87,0.14,,---,0.22,VWS V14.01,2013-05-11 01:03:00,
2013-05-10 21:05:00,64.5,60.5,30.00,West,269,14.0,24.0,87,0.14,,---,0.22,VWS V14.01,2013-05-11 01:05:00,
2013-05-10 21:08:00,64.5,60.2,30.01,WSW,255,3.0,7.0,86,0.16,,---,0.24,VWS V14.01,2013-05-11 01:08:00,
2013-05-10 21:10:00,64.5,60.2,30.01,WSW,252,2.0,17.0,86,0.16,,---,0.24,VWS V14.01,2013-05-11 01:10:00,
2013-05-10 21:13:00,64.6,60.3,30.00,SW,222,0.0,2.0,86,0.18,,---,0.26,VWS V14.01,2013-05-11 01:13:00,
2013-05-10 21:15:00,64.6,60.3,30.00,SW,222,0.0,7.0,86,0.17,,---,0.25,VWS V14.01,2013-05-11 01:15:00,
2013-05-10 21:18:00,64.6,60.3,30.00,SE,135,4.0,6.0,86,0.19,,---,0.27,VWS V14.01,2013-05-11 01:18:00,
2013-05-10 21:20:00,64.6,60.3,30.00,SSE,157,5.0,8.0,86,0.19,,---,0.27,VWS V14.01,2013-05-11 01:20:00,
2013-05-10 21:23:00,64.5,60.5,30.00,SE,133,5.0,5.0,87,0.20,,---,0.28,VWS V14.01,2013-05-11 01:23:00,
2013-05-10 21:25:00,64.5,60.5,30.00,SE,133,4.0,6.0,87,0.20,,---,0.28,VWS V14.01,2013-05-11 01:25:00,
2013-05-10 21:28:00,64.2,60.3,30.00,SE,142,6.0,7.0,87,0.20,,---,0.28,VWS V14.01,2013-05-11 01:28:00,
2013-05-10 21:30:00,64.2,60.3,30.00,SE,132,5.0,6.0,87,0.20,,---,0.28,VWS V14.01,2013-05-11 01:30:00,
2013-05-10 21:33:00,63.9,60.3,30.00,ESE,119,2.0,5.0,88,0.21,,---,0.29,VWS V14.01,2013-05-11 01:33:00,
2013-05-10 21:35:00,64.0,60.4,30.00,ESE,119,4.0,8.0,88,0.21,,---,0.29,VWS V14.01,2013-05-11 01:35:00,
2013-05-10 21:38:00,63.8,60.5,29.99,SE,132,4.0,5.0,89,0.21,,---,0.29,VWS V14.01,2013-05-11 01:38:00,
2013-05-10 21:40:00,63.8,60.5,30.00,SE,132,4.0,7.0,89,0.21,,---,0.29,VWS V14.01,2013-05-11 01:40:00,
2013-05-10 21:43:00,63.6,60.3,29.99,SE,134,1.0,5.0,89,0.21,,---,0.29,VWS V14.01,2013-05-11 01:43:00,
2013-05-10 21:45:00,63.6,60.3,29.99,SE,135,2.0,9.0,89,0.21,,---,0.29,VWS V14.01,2013-05-11 01:45:00,
2013-05-10 21:48:00,63.5,60.2,29.99,SE,136,2.0,4.0,89,0.20,,---,0.29,VWS V14.01,2013-05-11 01:48:00,
2013-05-10 21:50:00,63.5,60.2,29.99,SE,136,4.0,7.0,89,0.21,,---,0.29,VWS V14.01,2013-05-11 01:50:00,
2013-05-10 21:53:00,63.5,60.2,29.98,SE,136,0.0,0.0,89,0.20,,---,0.30,VWS V14.01,2013-05-11 01:53:00,
2013-05-10 21:55:00,63.5,60.2,29.98,SE,136,0.0,5.0,89,0.21,,---,0.30,VWS V14.01,2013-05-11 01:55:00,
2013-05-10 21:58:00,63.3,60.3,29.99,SW,219,4.0,5.0,90,0.15,,---,0.30,VWS V14.01,2013-05-11 01:58:00,
2013-05-10 22:00:00,63.4,60.4,29.98,SW,214,4.0,4.0,90,0.20,,---,0.30,VWS V14.01,2013-05-11 02:00:00,
2013-05-10 22:03:00,63.1,60.1,29.98,SW,219,0.0,1.0,90,0.08,,---,0.30,VWS V14.01,2013-05-11 02:03:00,
2013-05-10 22:05:00,63.2,60.2,29.99,SW,219,0.0,5.0,90,0.15,,---,0.30,VWS V14.01,2013-05-11 02:05:00,
2013-05-10 22:08:00,63.0,60.0,29.98,SW,219,3.0,3.0,90,0.06,,---,0.30,VWS V14.01,2013-05-11 02:08:00,
2013-05-10 22:10:00,63.0,60.0,29.98,SW,219,0.0,1.0,90,0.08,,---,0.30,VWS V14.01,2013-05-11 02:10:00,
2013-05-10 22:13:00,62.9,60.2,29.99,SW,219,3.0,4.0,91,0.05,,---,0.30,VWS V14.01,2013-05-11 02:13:00,
2013-05-10 22:15:00,62.9,60.2,29.98,SW,217,4.0,4.0,91,0.06,,---,0.30,VWS V14.01,2013-05-11 02:15:00,
2013-05-10 22:18:00,62.9,60.2,29.99,SSW,210,3.0,6.0,91,0.03,,---,0.30,VWS V14.01,2013-05-11 02:18:00,
2013-05-10 22:20:00,62.9,60.2,29.99,SSW,211,0.0,5.0,91,0.05,,---,0.30,VWS V14.01,2013-05-11 02:20:00,
2013-05-10 22:23:00,62.9,60.5,29.98,SSW,209,0.0,1.0,92,0.02,,---,0.30,VWS V14.01,2013-05-11 02:23:00,
2013-05-10 22:25:00,62.9,60.5,29.98,SSW,209,1.0,6.0,92,0.03,,---,0.30,VWS V14.01,2013-05-11 02:25:00,
2013-05-10 22:28:00,62.9,60.5,29.98,SSW,208,0.0,3.0,92,0.02,,---,0.30,VWS V14.01,2013-05-11 02:28:00,
2013-05-10 22:30:00,62.9,60.5,29.98,SSW,208,1.0,6.0,92,0.02,,---,0.30,VWS V14.01,2013-05-11 02:30:00,
2013-05-10 22:33:00,63.0,60.6,29.98,SW,221,0.0,2.0,92,0.01,,---,0.30,VWS V14.01,2013-05-11 02:33:00,
2013-05-10 22:35:00,62.9,60.5,29.99,SW,221,2.0,6.0,92,0.02,,---,0.30,VWS V14.01,2013-05-11 02:35:00,
2013-05-10 22:38:00,62.9,60.5,29.98,SW,229,0.0,1.0,92,0.01,,---,0.30,VWS V14.01,2013-05-11 02:38:00,
2013-05-10 22:40:00,62.9,60.5,29.98,SW,229,0.0,6.0,92,0.01,,---,0.30,VWS V14.01,2013-05-11 02:40:00,
2013-05-10 22:43:00,62.9,60.5,29.98,SW,225,5.0,5.0,92,0.01,,---,0.30,VWS V14.01,2013-05-11 02:43:00,
2013-05-10 22:45:00,62.9,60.5,29.98,SW,228,0.0,4.0,92,0.01,,---,0.30,VWS V14.01,2013-05-11 02:45:00,
2013-05-10 22:48:00,62.8,60.5,29.98,SSE,166,6.0,8.0,92,0.01,,---,0.30,VWS V14.01,2013-05-11 02:48:00,
2013-05-10 22:50:00,62.9,60.5,29.98,South,178,6.0,8.0,92,0.01,,---,0.30,VWS V14.01,2013-05-11 02:50:00,
2013-05-10 22:53:00,62.8,60.5,29.98,South,184,3.0,5.0,92,0.00,,---,0.30,VWS V14.01,2013-05-11 02:53:00,
2013-05-10 22:55:00,62.8,60.5,29.98,South,184,2.0,8.0,92,0.01,,---,0.30,VWS V14.01,2013-05-11 02:55:00,
2013-05-10 22:58:00,62.7,60.3,29.97,South,177,0.0,6.0,92,0.00,,---,0.30,VWS V14.01,2013-05-11 02:58:00,
2013-05-10 23:00:00,62.7,60.3,29.97,South,182,0.0,5.0,92,0.00,,---,0.30,VWS V14.01,2013-05-11 03:00:00,
2013-05-10 23:03:00,62.7,60.3,29.97,South,176,1.0,1.0,92,0.00,,---,0.30,VWS V14.01,2013-05-11 03:03:00,
2013-05-10 23:05:00,62.7,60.3,29.97,South,176,0.0,7.0,92,0.00,,---,0.30,VWS V14.01,2013-05-11 03:05:00,
2013-05-10 23:08:00,62.7,60.3,29.97,South,180,3.0,4.0,92,0.00,,---,0.30,VWS V14.01,2013-05-11 03:08:00,
2013-05-10 23:10:00,62.7,60.3,29.97,South,179,0.0,8.0,92,0.00,,---,0.30,VWS V14.01,2013-05-11 03:10:00,
2013-05-10 23:13:00,62.6,60.2,29.97,South,175,5.0,5.0,92,0.00,,---,0.30,VWS V14.01,2013-05-11 03:13:00,
2013-05-10 23:15:00,62.6,60.2,29.97,South,174,0.0,7.0,92,0.00,,---,0.30,VWS V14.01,2013-05-11 03:15:00,
2013-05-10 23:18:00,62.6,60.2,29.96,SSE,167,2.0,7.0,92,0.00,,---,0.30,VWS V14.01,2013-05-11 03:18:00,
2013-05-10 23:20:00,62.6,60.2,29.96,SSE,160,1.0,7.0,92,0.00,,---,0.30,VWS V14.01,2013-05-11 03:20:00,
2013-05-10 23:23:00,62.5,60.2,29.96,South,186,5.0,5.0,92,0.00,,---,0.30,VWS V14.01,2013-05-11 03:23:00,
2013-05-10 23:25:00,62.5,60.2,29.96,South,185,1.0,7.0,92,0.00,,---,0.30,VWS V14.01,2013-05-11 03:25:00,
2013-05-10 23:28:00,62.4,60.0,29.96,South,172,5.0,7.0,92,0.00,,---,0.30,VWS V14.01,2013-05-11 03:28:00,
2013-05-10 23:30:00,62.4,60.0,29.96,SSE,152,4.0,9.0,92,0.00,,---,0.30,VWS V14.01,2013-05-11 03:30:00,
2013-05-10 23:33:00,62.4,60.0,29.96,SSE,167,6.0,6.0,92,0.00,,---,0.30,VWS V14.01,2013-05-11 03:33:00,
2013-05-10 23:35:00,62.4,60.0,29.96,South,182,0.0,7.0,92,0.00,,---,0.30,VWS V14.01,2013-05-11 03:35:00,
2013-05-10 23:38:00,62.4,60.0,29.96,South,180,3.0,5.0,92,0.00,,---,0.30,VWS V14.01,2013-05-11 03:38:00,
2013-05-10 23:40:00,62.4,60.0,29.96,SSE,148,4.0,7.0,92,0.00,,---,0.30,VWS V14.01,2013-05-11 03:40:00,
2013-05-10 23:43:00,62.4,60.0,29.95,SSE,147,5.0,5.0,92,0.00,,---,0.30,VWS V14.01,2013-05-11 03:43:00,
2013-05-10 23:45:00,62.3,60.0,29.95,SSE,147,4.0,9.0,92,0.00,,---,0.30,VWS V14.01,2013-05-11 03:45:00,
2013-05-10 23:48:00,62.3,60.0,29.95,SSE,151,4.0,6.0,92,0.00,,---,0.30,VWS V14.01,2013-05-11 03:48:00,
2013-05-10 23:50:00,62.3,60.0,29.95,SSE,150,5.0,7.0,92,0.00,,---,0.30,VWS V14.01,2013-05-11 03:50:00,
2013-05-10 23:53:00,62.2,59.5,29.95,SE,139,6.0,11.0,91,0.00,,---,0.30,VWS V14.01,2013-05-11 03:53:00,
2013-05-10 23:55:00,62.2,59.5,29.95,SSE,163,4.0,8.0,91,0.00,,---,0.30,VWS V14.01,2013-05-11 03:55:00,
2013-05-10 23:58:00,62.2,59.5,29.95,SSW,199,3.0,7.0,91,0.00,,---,0.00,VWS V14.01,2013-05-11 03:58:00,